QPF
0.00 0.00 0.00 0.01 0.01 0.02 0.02 0.02 0.02 0.02 0.01 0.01 0.01 0.00 0.00 0.00 0.00 0.00 0.01 0.01 0.01 0.01 0.01 0.01 0.01 0.01 0.02 0.02 0.02 0.03 0.05 0.06 0.07 0.07 0.06 0.06 0.07 0.07 0.07 0.07 0.06 0.06 0.05
0.01 0.01 0.00 0.01 0.01 0.02 0.02 0.02 0.02 0.02 0.01 0.01 0.01 0.00 0.00 0.00 0.00 0.00 0.00 0.00 0.00 0.01 0.01 0.01 0.01 0.01 0.01 0.01 0.01 0.02 0.02 0.03 0.05 0.07 0.06 0.07 0.08 0.07 0.05 0.05 0.05 0.06 0.06
0.01 0.01 0.01 0.01 0.01 0.01 0.01 0.01 0.01 0.01 0.01 0.01 0.00 0.00 0.00 0.00 0.00 0.00 0.00 0.00 0.00 0.00 0.00 0.01 0.01 0.00 0.01 0.01 0.01 0.01 0.01 0.02 0.03 0.04 0.05 0.05 0.05 0.06 0.05 0.04 0.04 0.05 0.07
0.00 0.00 0.00 0.01 0.01 0.01 0.01 0.01 0.01 0.01 0.01 0.00 0.00 0.00 0.00 0.00 0.00 0.00 0.00 0.00 0.00 0.00 0.00 0.01 0.01 0.01 0.01 0.01 0.01 0.02 0.02 0.02 0.02 0.02 0.03 0.03 0.02 0.03 0.04 0.03 0.03 0.03 0.04
0.00 0.00 0.00 0.01 0.01 0.01 0.01 0.01 0.01 0.01 0.00 0.00 0.00 0.00 0.00 0.00 0.00 0.00 0.01 0.01 0.01 0.00 0.00 0.01 0.01 0.01 0.01 0.01 0.01 0.01 0.02 0.02 0.02 0.02 0.03 0.03 0.03 0.03 0.03 0.04 0.04 0.04 0.03
0.00 0.00 0.00 0.00 0.01 0.01 0.01 0.01 0.01 0.00 0.00 0.00 0.00 0.00 0.00 0.00 0.00 0.00 0.00 0.02 0.02 0.01 0.00 0.01 0.01 0.01 0.01 0.01 0.01 0.01 0.02 0.02 0.02 0.03 0.03 0.03 0.03 0.04 0.04 0.04 0.04 0.04 0.04
0.00 0.00 0.00 0.00 0.00 0.00 0.01 0.01 0.01 0.01 0.00 0.00 0.00 0.00 0.00 0.00 0.00 0.00 0.00 0.00 0.01 0.01 0.01 0.00 0.01 0.02 0.01 0.01 0.01 0.01 0.01 0.01 0.02 0.02 0.03 0.03 0.02 0.03 0.04 0.05 0.05 0.05 0.05
0.00 0.00 0.00 0.00 0.00 0.00 0.00 0.00 0.00 0.00 0.00 0.00 0.00 0.00 0.00 0.00 0.00 0.00 0.00 0.01 0.01 0.01 0.01 0.00 0.00 0.01 0.01 0.00 0.01 0.01 0.01 0.01 0.01 0.01 0.02 0.02 0.02 0.02 0.02 0.03 0.04 0.05 0.05
0.00 0.00 0.00 0.00 0.00 0.00 0.00 0.00 0.00 0.00 0.00 0.00 0.00 0.00 0.00 0.00 0.00 0.00 0.00 0.00 0.00 0.00 0.00 0.00 0.00 0.00 0.00 0.00 0.01 0.01 0.02 0.01 0.01 0.01 0.01 0.01 0.01 0.01 0.01 0.02 0.02 0.04 0.04
0.00 0.00 0.00 0.00 0.00 0.00 0.00 0.00 0.00 0.00 0.00 0.00 0.00 0.00 0.00 0.00 0.00 0.00 0.00 0.00 0.00 0.00 0.00 0.00 0.00 0.00 0.00 0.00 0.00 0.01 0.01 0.01 0.01 0.01 0.01 0.01 0.01 0.01 0.01 0.01 0.01 0.02 0.03
0.00 0.00 0.00 0.00 0.00 0.00 0.00 0.00 0.00 0.00 0.00 0.00 0.00 0.00 0.00 0.00 0.00 0.00 0.00 0.00 0.00 0.00 0.00 0.00 0.01 0.01 0.01 0.01 0.01 0.01 0.01 0.01 0.01 0.02 0.02 0.02 0.01 0.01 0.01 0.01 0.01 0.01 0.02
0.00 0.00 0.00 0.00 0.00 0.00 0.00 0.00 0.00 0.00 0.00 0.00 0.00 0.00 0.00 0.00 0.00 0.00 0.00 0.00 0.00 0.00 0.00 0.00 0.01 0.00 0.00 0.01 0.01 0.01 0.01 0.02 0.02 0.02 0.02 0.02 0.01 0.01 0.01 0.01 0.01 0.01 0.01
0.00 0.00 0.00 0.00 0.00 0.00 0.00 0.00 0.00 0.00 0.00 0.00 0.00 0.00 0.00 0.00 0.00 0.00 0.00 0.00 0.00 0.01 0.00 0.01 0.01 0.00 0.00 0.00 0.01 0.01 0.01 0.02 0.02 0.01 0.02 0.03 0.03 0.02 0.02 0.02 0.02 0.01 0.01
0.00 0.00 0.00 0.00 0.00 0.00 0.00 0.00 0.00 0.00 0.00 0.00 0.00 0.00 0.00 0.00 0.00 0.00 0.00 0.00 0.00 0.01 0.00 0.01 0.01 0.00 0.00 0.00 0.01 0.01 0.01 0.02 0.02 0.01 0.01 0.02 0.04 0.04 0.03 0.03 0.03 0.03 0.03
0.00 0.00 0.00 0.00 0.00 0.00 0.00 0.00 0.00 0.00 0.00 0.00 0.00 0.00 0.00 0.00 0.00 0.00 0.00 0.00 0.00 0.00 0.00 0.00 0.00 0.00 0.00 0.01 0.01 0.01 0.02 0.02 0.02 0.01 0.01 0.01 0.02 0.04 0.05 0.04 0.04 0.04 0.04
0.00 0.00 0.00 0.00 0.00 0.00 0.00 0.00 0.00 0.00 0.00 0.00 0.00 0.00 0.00 0.00 0.00 0.00 0.00 0.00 0.00 0.00 0.00 0.00 0.01 0.00 0.00 0.01 0.01 0.02 0.02 0.02 0.02 0.01 0.01 0.01 0.01 0.02 0.03 0.05 0.04 0.04 0.05
0.00 0.00 0.00 0.00 0.00 0.00 0.00 0.00 0.00 0.00 0.00 0.00 0.00 0.00 0.00 0.00 0.00 0.00 0.00 0.00 0.01 0.01 0.01 0.01 0.01 0.00 0.01 0.01 0.02 0.02 0.01 0.02 0.01 0.01 0.01 0.01 0.01 0.02 0.02 0.03 0.04 0.04 0.04
0.00 0.00 0.00 0.00 0.00 0.00 0.00 0.00 0.00 0.00 0.00 0.00 0.00 0.00 0.00 0.00 0.00 0.00 0.00 0.00 0.01 0.01 0.01 0.00 0.00 0.00 0.01 0.02 0.02 0.01 0.01 0.01 0.01 0.01 0.02 0.02 0.03 0.02 0.02 0.03 0.03 0.03 0.03
0.00 0.00 0.00 0.00 0.00 0.00 0.00 0.00 0.00 0.00 0.00 0.00 0.00 0.00 0.00 0.00 0.00 0.00 0.00 0.01 0.01 0.00 0.00 0.00 0.00 0.00 0.01 0.01 0.01 0.01 0.01 0.01 0.01 0.01 0.02 0.02 0.03 0.03 0.03 0.03 0.03 0.03 0.03
0.00 0.00 0.00 0.00 0.00 0.00 0.00 0.00 0.00 0.00 0.00 0.00 0.00 0.00 0.00 0.01 0.01 0.01 0.00 0.00 0.00 0.00 0.00 0.00 0.00 0.00 0.00 0.01 0.01 0.01 0.02 0.02 0.02 0.02 0.02 0.02 0.03 0.03 0.02 0.02 0.02 0.03 0.03
0.00 0.00 0.00 0.00 0.00 0.00 0.00 0.00 0.00 0.00 0.00 0.00 0.00 0.00 0.00 0.01 0.01 0.01 0.01 0.00 0.00 0.00 0.00 0.00 0.00 0.00 0.00 0.01 0.01 0.01 0.01 0.02 0.02 0.03 0.03 0.03 0.03 0.02 0.02 0.02 0.02 0.02 0.02
0.00 0.00 0.00 0.00 0.00 0.00 0.00 0.01 0.01 0.00 0.00 0.00 0.00 0.00 0.01 0.01 0.01 0.01 0.01 0.00 0.00 0.00 0.00 0.00 0.00 0.00 0.00 0.00 0.01 0.01 0.02 0.02 0.02 0.02 0.02 0.02 0.03 0.03 0.02 0.02 0.02 0.02 0.02
0.00 0.00 0.00 0.00 0.00 0.00 0.00 0.01 0.01 0.01 0.01 0.00 0.00 0.00 0.01 0.01 0.01 0.01 0.01 0.01 0.00 0.00 0.00 0.00 0.00 0.01 0.01 0.01 0.01 0.01 0.02 0.02 0.02 0.02 0.02 0.02 0.02 0.02 0.03 0.03 0.02 0.01 0.02
0.00 0.00 0.00 0.00 0.00 0.00 0.00 0.00 0.01 0.01 0.00 0.00 0.00 0.01 0.01 0.01 0.01 0.01 0.01 0.01 0.00 0.00 0.00 0.00 0.00 0.00 0.00 0.01 0.01 0.01 0.01 0.02 0.02 0.02 0.02 0.02 0.02 0.02 0.02 0.03 0.02 0.02 0.02
0.00 0.00 0.00 0.00 0.00 0.00 0.00 0.00 0.00 0.00 0.00 0.00 0.00 0.01 0.01 0.01 0.01 0.02 0.01 0.01 0.01 0.01 0.01 0.00 0.00 0.00 0.00 0.01 0.01 0.01 0.01 0.02 0.02 0.02 0.01 0.02 0.02 0.02 0.02 0.02 0.02 0.02 0.02
0.00 0.00 0.00 0.00 0.00 0.00 0.00 0.00 0.00 0.00 0.00 0.00 0.01 0.01 0.01 0.01 0.01 0.02 0.01 0.01 0.01 0.01 0.01 0.01 0.01 0.01 0.01 0.01 0.01 0.01 0.01 0.01 0.01 0.01 0.01 0.01 0.02 0.02 0.02 0.02 0.03 0.03 0.02
MSLP
1018.38 1018.62 1018.84 1019.03 1019.18 1019.30 1019.38 1019.44 1019.51 1019.60 1019.71 1019.85 1019.99 1020.11 1020.20 1020.21 1020.16 1020.04 1019.88 1019.70 1019.53 1019.41 1019.35 1019.36 1019.41 1019.47 1019.53 1019.53 1019.46 1019.30 1019.05 1018.72 1018.33 1017.89 1017.44 1016.97 1016.52 1016.07 1015.65 1015.24 1014.88 1014.55 1014.28
1018.35 1018.59 1018.81 1018.98 1019.11 1019.20 1019.27 1019.35 1019.45 1019.60 1019.79 1020.00 1020.21 1020.38 1020.48 1020.48 1020.39 1020.22 1020.00 1019.77 1019.57 1019.43 1019.38 1019.40 1019.48 1019.59 1019.66 1019.69 1019.62 1019.47 1019.22 1018.89 1018.50 1018.09 1017.65 1017.21 1016.78 1016.34 1015.91 1015.48 1015.07 1014.68 1014.33
1018.03 1018.33 1018.59 1018.79 1018.93 1019.03 1019.12 1019.21 1019.35 1019.55 1019.79 1020.07 1020.33 1020.55 1020.67 1020.68 1020.57 1020.37 1020.11 1019.85 1019.63 1019.49 1019.44 1019.48 1019.57 1019.69 1019.78 1019.80 1019.74 1019.58 1019.34 1019.02 1018.66 1018.27 1017.88 1017.48 1017.08 1016.67 1016.24 1015.78 1015.33 1014.87 1014.44
1017.49 1017.87 1018.21 1018.48 1018.68 1018.82 1018.93 1019.04 1019.21 1019.44 1019.72 1020.04 1020.34 1020.59 1020.74 1020.76 1020.66 1020.46 1020.20 1019.94 1019.72 1019.58 1019.53 1019.57 1019.66 1019.77 1019.85 1019.87 1019.79 1019.63 1019.38 1019.08 1018.75 1018.40 1018.05 1017.70 1017.34 1016.95 1016.52 1016.05 1015.55 1015.04 1014.53
1016.79 1017.28 1017.73 1018.10 1018.37 1018.57 1018.72 1018.86 1019.04 1019.27 1019.57 1019.90 1020.23 1020.50 1020.68 1020.73 1020.65 1020.48 1020.24 1020.00 1019.80 1019.66 1019.62 1019.65 1019.74 1019.82 1019.88 1019.86 1019.77 1019.58 1019.33 1019.04 1018.73 1018.42 1018.11 1017.80 1017.47 1017.11 1016.68 1016.20 1015.67 1015.11 1014.54
1016.06 1016.65 1017.21 1017.69 1018.05 1018.31 1018.49 1018.65 1018.83 1019.06 1019.34 1019.67 1020.00 1020.28 1020.49 1020.57 1020.54 1020.41 1020.23 1020.02 1019.85 1019.73 1019.69 1019.72 1019.77 1019.82 1019.84 1019.78 1019.65 1019.44 1019.18 1018.88 1018.59 1018.30 1018.02 1017.74 1017.43 1017.09 1016.67 1016.18 1015.63 1015.04 1014.45
1015.39 1016.06 1016.72 1017.29 1017.74 1018.05 1018.26 1018.43 1018.59 1018.79 1019.05 1019.36 1019.68 1019.97 1020.20 1020.33 1020.35 1020.28 1020.15 1020.00 1019.86 1019.77 1019.73 1019.73 1019.76 1019.76 1019.73 1019.62 1019.45 1019.21 1018.93 1018.63 1018.33 1018.04 1017.78 1017.51 1017.22 1016.89 1016.48 1015.99 1015.45 1014.86 1014.26
1014.85 1015.58 1016.30 1016.94 1017.43 1017.78 1018.01 1018.17 1018.31 1018.48 1018.71 1018.99 1019.29 1019.59 1019.84 1020.01 1020.09 1020.09 1020.02 1019.92 1019.83 1019.75 1019.71 1019.69 1019.68 1019.64 1019.55 1019.41 1019.19 1018.92 1018.62 1018.30 1018.00 1017.71 1017.44 1017.18 1016.89 1016.56 1016.17 1015.70 1015.18 1014.63 1014.07
1014.49 1015.23 1015.97 1016.62 1017.14 1017.50 1017.73 1017.87 1017.99 1018.13 1018.32 1018.58 1018.87 1019.17 1019.45 1019.66 1019.80 1019.86 1019.85 1019.80 1019.74 1019.68 1019.63 1019.59 1019.54 1019.46 1019.34 1019.15 1018.91 1018.62 1018.30 1017.97 1017.66 1017.37 1017.09 1016.83 1016.54 1016.22 1015.84 1015.41 1014.94 1014.44 1013.95
1014.30 1014.99 1015.69 1016.32 1016.81 1017.16 1017.37 1017.50 1017.59 1017.71 1017.89 1018.13 1018.42 1018.74 1019.04 1019.30 1019.49 1019.60 1019.65 1019.64 1019.61 1019.56 1019.51 1019.45 1019.37 1019.26 1019.11 1018.90 1018.65 1018.35 1018.04 1017.71 1017.40 1017.11 1016.83 1016.56 1016.28 1015.97 1015.62 1015.24 1014.83 1014.41 1014.01
1014.23 1014.82 1015.44 1016.00 1016.43 1016.73 1016.91 1017.02 1017.10 1017.22 1017.39 1017.64 1017.95 1018.29 1018.62 1018.92 1019.16 1019.32 1019.41 1019.45 1019.44 1019.40 1019.34 1019.27 1019.18 1019.06 1018.90 1018.70 1018.45 1018.18 1017.88 1017.58 1017.29 1017.01 1016.74 1016.47 1016.20 1015.91 1015.60 1015.27 1014.93 1014.61 1014.31
1014.21 1014.68 1015.17 1015.61 1015.95 1016.18 1016.32 1016.41 1016.50 1016.62 1016.82 1017.09 1017.43 1017.81 1018.19 1018.53 1018.81 1019.02 1019.15 1019.22 1019.23 1019.20 1019.15 1019.08 1018.99 1018.87 1018.73 1018.55 1018.34 1018.11 1017.86 1017.60 1017.34 1017.09 1016.84 1016.60 1016.35 1016.09 1015.82 1015.55 1015.29 1015.05 1014.85
1014.18 1014.50 1014.84 1015.14 1015.37 1015.52 1015.61 1015.68 1015.77 1015.93 1016.16 1016.48 1016.86 1017.28 1017.71 1018.10 1018.43 1018.68 1018.86 1018.96 1019.00 1018.99 1018.96 1018.90 1018.83 1018.73 1018.62 1018.48 1018.33 1018.15 1017.96 1017.76 1017.56 1017.35 1017.14 1016.93 1016.72 1016.49 1016.27 1016.05 1015.86 1015.70 1015.58
1014.11 1014.27 1014.45 1014.59 1014.69 1014.75 1014.79 1014.84 1014.95 1015.14 1015.42 1015.79 1016.23 1016.70 1017.18 1017.62 1018.00 1018.31 1018.53 1018.67 1018.74 1018.77 1018.77 1018.74 1018.69 1018.64 1018.57 1018.48 1018.38 1018.28 1018.15 1018.02 1017.88 1017.73 1017.57 1017.41 1017.23 1017.05 1016.87 1016.70 1016.56 1016.46 1016.40
1013.97 1013.98 1013.99 1013.98 1013.95 1013.92 1013.90 1013.94 1014.07 1014.29 1014.62 1015.04 1015.53 1016.06 1016.59 1017.09 1017.52 1017.88 1018.15 1018.35 1018.48 1018.55 1018.59 1018.60 1018.59 1018.57 1018.55 1018.52 1018.48 1018.43 1018.38 1018.32 1018.24 1018.15 1018.05 1017.93 1017.80 1017.66 1017.52 1017.40 1017.30 1017.23 1017.21
1013.78 1013.65 1013.51 1013.36 1013.21 1013.09 1013.03 1013.05 1013.18 1013.44 1013.80 1014.27 1014.81 1015.39 1015.97 1016.51 1017.00 1017.41 1017.75 1018.01 1018.20 1018.33 1018.42 1018.47 1018.51 1018.53 1018.55 1018.56 1018.57 1018.57 1018.58 1018.58 1018.56 1018.53 1018.49 1018.42 1018.33 1018.23 1018.12 1018.03 1017.96 1017.92 1017.92
1013.55 1013.31 1013.04 1012.77 1012.52 1012.33 1012.22 1012.23 1012.37 1012.64 1013.03 1013.53 1014.10 1014.70 1015.32 1015.91 1016.45 1016.92 1017.32 1017.65 1017.91 1018.10 1018.25 1018.35 1018.43 1018.48 1018.53 1018.57 1018.61 1018.66 1018.70 1018.75 1018.79 1018.81 1018.81 1018.79 1018.75 1018.69 1018.61 1018.54 1018.48 1018.46 1018.46
1013.31 1012.97 1012.60 1012.24 1011.93 1011.69 1011.55 1011.55 1011.69 1011.96 1012.36 1012.87 1013.44 1014.06 1014.70 1015.32 1015.90 1016.43 1016.89 1017.28 1017.61 1017.86 1018.07 1018.21 1018.32 1018.41 1018.47 1018.53 1018.59 1018.65 1018.73 1018.81 1018.89 1018.95 1019.00 1019.03 1019.02 1018.99 1018.95 1018.89 1018.85 1018.82 1018.82
1013.05 1012.65 1012.22 1011.81 1011.46 1011.19 1011.05 1011.04 1011.17 1011.45 1011.84 1012.33 1012.89 1013.50 1014.14 1014.77 1015.38 1015.94 1016.46 1016.91 1017.29 1017.61 1017.86 1018.04 1018.18 1018.28 1018.35 1018.42 1018.48 1018.56 1018.65 1018.76 1018.87 1018.97 1019.06 1019.13 1019.16 1019.17 1019.14 1019.11 1019.06 1019.03 1019.02
1012.75 1012.32 1011.87 1011.45 1011.10 1010.84 1010.71 1010.70 1010.84 1011.09 1011.46 1011.92 1012.46 1013.04 1013.66 1014.29 1014.90 1015.49 1016.04 1016.54 1016.97 1017.33 1017.61 1017.83 1017.98 1018.09 1018.17 1018.23 1018.30 1018.39 1018.49 1018.62 1018.76 1018.90 1019.03 1019.14 1019.21 1019.24 1019.24 1019.22 1019.18 1019.15 1019.13
1012.40 1011.97 1011.54 1011.15 1010.83 1010.61 1010.50 1010.51 1010.65 1010.89 1011.23 1011.65 1012.15 1012.69 1013.27 1013.88 1014.49 1015.08 1015.65 1016.17 1016.63 1017.01 1017.32 1017.55 1017.71 1017.83 1017.91 1017.98 1018.06 1018.16 1018.28 1018.44 1018.61 1018.79 1018.96 1019.10 1019.21 1019.27 1019.29 1019.28 1019.25 1019.22 1019.19
1011.97 1011.57 1011.18 1010.85 1010.60 1010.43 1010.37 1010.41 1010.55 1010.79 1011.10 1011.48 1011.93 1012.43 1012.97 1013.54 1014.13 1014.71 1015.28 1015.80 1016.26 1016.66 1016.97 1017.21 1017.38 1017.50 1017.59 1017.67 1017.77 1017.88 1018.04 1018.22 1018.43 1018.65 1018.86 1019.04 1019.18 1019.28 1019.32 1019.33 1019.31 1019.28 1019.24
1011.47 1011.12 1010.81 1010.56 1010.38 1010.28 1010.27 1010.35 1010.50 1010.72 1011.01 1011.36 1011.77 1012.22 1012.72 1013.26 1013.81 1014.38 1014.92 1015.43 1015.89 1016.27 1016.58 1016.82 1016.99 1017.11 1017.21 1017.31 1017.43 1017.58 1017.77 1018.00 1018.25 1018.51 1018.76 1018.98 1019.15 1019.27 1019.34 1019.37 1019.36 1019.34 1019.31
1010.95 1010.66 1010.42 1010.25 1010.15 1010.12 1010.16 1010.27 1010.44 1010.65 1010.92 1011.24 1011.61 1012.03 1012.50 1013.00 1013.53 1014.06 1014.58 1015.07 1015.50 1015.86 1016.16 1016.38 1016.55 1016.68 1016.80 1016.92 1017.07 1017.26 1017.50 1017.77 1018.07 1018.37 1018.65 1018.91 1019.11 1019.25 1019.34 1019.39 1019.40 1019.39 1019.38
1010.47 1010.23 1010.06 1009.96 1009.92 1009.95 1010.03 1010.15 1010.32 1010.53 1010.78 1011.09 1011.43 1011.83 1012.28 1012.76 1013.26 1013.77 1014.26 1014.71 1015.11 1015.45 1015.72 1015.92 1016.08 1016.22 1016.35 1016.51 1016.70 1016.93 1017.21 1017.53 1017.87 1018.21 1018.53 1018.81 1019.03 1019.20 1019.31 1019.37 1019.41 1019.43 1019.44
1010.11 1009.92 1009.80 1009.74 1009.73 1009.78 1009.86 1009.98 1010.14 1010.34 1010.58 1010.87 1011.21 1011.60 1012.03 1012.50 1012.99 1013.48 1013.95 1014.37 1014.74 1015.04 1015.29 1015.47 1015.63 1015.77 1015.92 1016.10 1016.33 1016.60 1016.93 1017.29 1017.67 1018.04 1018.38 1018.68 1018.92 1019.10 1019.23 1019.32 1019.38 1019.43 1019.47
Thickness
5608 5608 5608 5608 5608 5608 5608 5609 5609 5610 5611 5612 5611 5612 5612 5613 5614 5616 5617 5618 5620 5621 5622 5623 5625 5626 5626 5627 5628 5630 5631 5632 5634 5635 5637 5640 5642 5644 5646 5647 5648 5649 5650
5602 5602 5602 5601 5601 5602 5602 5602 5603 5603 5604 5604 5604 5604 5604 5605 5606 5607 5608 5609 5611 5612 5613 5614 5615 5616 5617 5618 5619 5619 5620 5622 5623 5623 5623 5626 5630 5634 5637 5638 5639 5640 5641
5599 5598 5597 5596 5595 5595 5596 5598 5597 5597 5597 5597 5597 5596 5596 5596 5596 5598 5599 5600 5601 5603 5604 5605 5606 5607 5608 5608 5609 5609 5610 5610 5611 5612 5613 5613 5617 5619 5624 5627 5629 5629 5630
5595 5594 5593 5591 5590 5590 5590 5591 5591 5590 5590 5590 5589 5588 5587 5586 5587 5588 5589 5591 5592 5593 5595 5596 5597 5597 5598 5598 5599 5600 5600 5600 5600 5601 5602 5604 5605 5605 5609 5613 5616 5618 5620
5591 5591 5590 5589 5587 5585 5584 5584 5584 5583 5583 5582 5581 5580 5579 5579 5579 5579 5581 5582 5583 5584 5585 5586 5586 5587 5587 5588 5588 5589 5590 5590 5591 5591 5592 5592 5593 5595 5596 5600 5603 5605 5608
5587 5586 5585 5583 5581 5579 5578 5577 5577 5576 5575 5574 5573 5573 5571 5571 5570 5570 5571 5572 5573 5574 5575 5575 5576 5576 5577 5577 5578 5579 5580 5581 5581 5582 5582 5582 5583 5585 5586 5588 5590 5592 5596
5581 5579 5578 5576 5575 5573 5571 5570 5570 5569 5568 5566 5566 5565 5564 5563 5562 5562 5561 5562 5563 5563 5564 5565 5565 5566 5566 5567 5568 5568 5569 5570 5571 5572 5573 5573 5574 5574 5575 5577 5579 5581 5584
5574 5574 5572 5571 5569 5568 5566 5564 5563 5562 5560 5558 5557 5556 5555 5554 5553 5553 5553 5552 5553 5553 5554 5554 5554 5555 5555 5556 5557 5558 5558 5559 5560 5561 5562 5563 5564 5564 5565 5566 5567 5569 5572
5568 5567 5565 5564 5562 5561 5559 5558 5556 5555 5553 5551 5549 5547 5546 5545 5544 5544 5544 5543 5543 5543 5543 5543 5543 5543 5544 5545 5546 5547 5547 5548 5549 5549 5550 5551 5553 5553 5554 5555 5556 5558 5561
5561 5559 5558 5557 5555 5554 5553 5550 5549 5547 5545 5543 5541 5540 5538 5537 5535 5535 5534 5533 5533 5533 5533 5532 5532 5532 5533 5534 5535 5536 5537 5538 5538 5539 5539 5541 5541 5542 5543 5544 5544 5546 5548
5554 5552 5551 5549 5548 5546 5544 5542 5540 5539 5537 5535 5533 5531 5529 5528 5526 5525 5525 5524 5524 5523 5522 5522 5522 5522 5523 5523 5524 5525 5526 5527 5527 5528 5529 5530 5530 5531 5531 5532 5533 5534 5535
5546 5544 5542 5540 5538 5537 5535 5533 5532 5530 5529 5527 5525 5522 5520 5518 5517 5516 5515 5514 5514 5513 5512 5512 5512 5512 5512 5512 5513 5514 5514 5515 5515 5516 5517 5518 5519 5519 5519 5520 5521 5522 5523
5538 5535 5532 5531 5529 5528 5526 5525 5524 5523 5521 5518 5516 5513 5511 5509 5507 5506 5505 5504 5503 5502 5502 5502 5502 5502 5502 5502 5502 5503 5503 5503 5504 5505 5506 5506 5506 5507 5507 5508 5509 5510 5513
5530 5527 5524 5522 5521 5520 5518 5517 5516 5514 5512 5510 5507 5505 5502 5500 5498 5497 5495 5494 5493 5492 5492 5492 5491 5491 5492 5492 5492 5492 5492 5492 5493 5494 5494 5495 5496 5495 5495 5496 5497 5499 5500
5523 5520 5517 5515 5513 5511 5510 5509 5507 5506 5504 5501 5498 5496 5494 5491 5489 5487 5485 5484 5483 5482 5481 5481 5482 5481 5482 5482 5483 5483 5482 5482 5482 5483 5484 5484 5485 5485 5485 5486 5486 5488 5489
5516 5514 5511 5508 5505 5504 5502 5501 5499 5497 5495 5492 5490 5488 5484 5482 5479 5477 5476 5474 5473 5473 5472 5472 5473 5472 5473 5474 5474 5473 5472 5472 5472 5473 5473 5474 5474 5474 5475 5476 5476 5478 5478
5507 5505 5503 5500 5498 5496 5495 5493 5491 5489 5486 5484 5482 5479 5476 5473 5470 5468 5466 5465 5464 5464 5464 5464 5464 5463 5463 5465 5465 5464 5463 5462 5462 5462 5462 5464 5464 5464 5463 5464 5465 5466 5468
5499 5497 5494 5492 5490 5488 5486 5485 5482 5479 5477 5475 5473 5470 5467 5464 5462 5459 5457 5456 5455 5455 5454 5454 5454 5454 5454 5455 5455 5455 5453 5452 5452 5451 5451 5452 5452 5453 5453 5453 5453 5454 5456
5490 5488 5486 5484 5482 5480 5478 5476 5473 5471 5468 5466 5464 5462 5459 5456 5454 5451 5450 5449 5447 5447 5446 5446 5445 5445 5445 5446 5446 5445 5444 5443 5442 5442 5442 5442 5442 5444 5444 5443 5443 5444 5445
5482 5480 5478 5475 5473 5472 5469 5467 5465 5462 5461 5460 5458 5455 5452 5449 5447 5445 5443 5442 5440 5439 5439 5438 5437 5437 5437 5438 5438 5437 5435 5434 5434 5433 5433 5433 5434 5434 5434 5433 5433 5433 5434
5474 5472 5469 5466 5464 5463 5460 5458 5456 5455 5455 5453 5451 5448 5445 5443 5441 5438 5436 5435 5433 5432 5430 5430 5430 5429 5429 5430 5430 5429 5427 5426 5425 5424 5424 5424 5425 5425 5424 5424 5423 5423 5423
5464 5462 5458 5457 5456 5454 5451 5449 5449 5449 5447 5445 5443 5440 5438 5436 5434 5431 5429 5427 5425 5424 5423 5422 5422 5421 5421 5422 5422 5422 5420 5419 5417 5416 5415 5414 5415 5415 5414 5413 5413 5413 5413
5453 5451 5449 5447 5446 5444 5443 5441 5442 5441 5439 5437 5435 5433 5431 5428 5427 5424 5422 5420 5418 5417 5416 5415 5414 5414 5414 5413 5414 5413 5413 5411 5409 5407 5407 5406 5405 5404 5403 5402 5402 5401 5400
5443 5441 5439 5437 5437 5436 5435 5434 5434 5433 5431 5429 5427 5425 5423 5421 5419 5417 5415 5413 5411 5410 5410 5408 5408 5407 5406 5405 5404 5404 5403 5402 5400 5398 5397 5396 5395 5393 5392 5391 5390 5389 5388
5433 5431 5429 5428 5428 5428 5427 5427 5426 5424 5422 5421 5419 5417 5416 5414 5411 5410 5409 5408 5407 5406 5405 5403 5402 5400 5399 5399 5398 5396 5394 5393 5391 5389 5387 5385 5383 5381 5380 5379 5378 5378 5377
5424 5422 5420 5419 5420 5419 5419 5419 5418 5417 5415 5413 5412 5410 5408 5406 5404 5402 5401 5402 5401 5401 5400 5399 5396 5395 5394 5393 5392 5390 5388 5386 5384 5381 5378 5376 5374 5372 5370 5369 5368 5368 5367